Temp
17 18 19 19 18 19 18 18 16 16 17 18 18 18 19 21 22 22 22 20 20 20 20 19 18 17 17 17 17 16 16 16 14 13 13 12 11 11 9 9 9 8 8 8
16 17 18 18 18 18 19 19 19 18 18 19 20 21 21 22 22 22 22 22 20 20 19 18 17 17 16 16 16 16 16 15 14 12 11 11 10 9 8 8 7 7 7 6
14 16 17 14 16 18 18 19 19 17 17 19 19 19 19 22 22 21 21 22 21 20 18 17 17 18 16 15 15 14 13 12 11 10 10 9 9 8 7 6 6 5 5 5
9 11 13 16 17 18 18 19 19 19 20 19 20 22 22 22 22 21 22 21 21 20 18 17 16 16 15 15 14 12 11 10 9 9 9 8 7 7 6 5 5 5 3 1
11 12 14 17 18 18 18 17 19 19 19 19 22 21 20 21 21 21 21 20 20 19 18 16 16 15 14 12 11 11 10 9 8 8 8 7 5 4 4 4 1 1 0 -0
7 11 12 14 16 18 18 14 19 19 18 19 19 15 15 20 20 20 20 19 18 17 16 14 12 12 12 11 10 9 9 8 8 7 6 5 4 2 1 1 1 0 -0 -1
7 8 10 15 17 19 15 14 19 20 20 20 16 16 20 19 19 19 18 17 16 14 14 12 11 11 11 10 9 8 8 7 6 6 5 4 3 2 1 1 0 -0 -1 -1
7 8 9 14 16 16 14 19 19 20 21 21 20 20 19 19 18 17 16 15 14 13 12 11 10 10 9 8 7 6 6 5 5 4 3 3 2 1 1 0 0 -0 -1 -1
9 8 12 13 13 13 13 11 17 19 19 17 18 18 18 18 17 16 15 13 12 11 10 9 9 9 8 7 6 5 5 4 4 3 2 2 1 0 -0 -0 -0 -1 -2 -2
11 12 12 15 15 16 13 12 14 15 18 18 17 16 17 17 15 14 13 12 11 10 9 9 8 8 7 6 5 5 4 3 2 2 0 -0 -0 -0 -0 -1 -1 -2 -2 -3
11 12 12 14 16 16 15 15 14 16 15 17 17 16 16 15 14 13 12 11 10 9 9 8 7 6 6 5 4 4 3 2 1 0 0 -0 -1 -1 -1 -1 -2 -2 -2 -3
8 11 12 14 15 15 15 14 14 14 15 16 16 16 16 14 13 12 11 10 9 8 8 7 6 5 4 3 3 2 1 0 -0 -0 -1 -1 -1 -1 -2 -2 -2 -3 -3 -3
13 15 15 15 14 14 14 14 14 14 15 15 16 16 15 14 12 11 10 9 8 7 6 5 4 3 2 1 1 1 -0 -1 -1 -2 -2 -2 -3 -3 -3 -4 -5 -4 -5 -5
11 13 12 13 11 11 11 12 13 13 14 14 15 15 14 12 11 10 9 8 6 5 4 3 2 1 1 1 0 -1 -1 -2 -2 -3 -4 -4 -5 -5 -5 -4 -5 -6 -6 -7
7 8 9 9 10 9 9 10 10 10 11 13 13 13 12 10 9 8 7 6 5 3 1 1 -0 -2 -2 -2 -1 -2 -3 -3 -4 -4 -4 -5 -5 -6 -5 -5 -6 -7 -8 -9
6 6 7 8 8 8 8 8 8 8 9 10 10 10 9 8 7 5 3 2 3 -0 -3 -3 -3 -5 -5 -5 -5 -5 -5 -5 -6 -6 -6 -7 -7 -7 -7 -6 -8 -9 -10 -11
3 3 5 6 6 6 6 6 6 6 6 7 6 5 5 4 2 1 -1 -2 -2 -4 -5 -5 -5 -6 -7 -7 -7 -6 -5 -6 -6 -7 -8 -8 -8 -7 -7 -8 -9 -10 -11 -12
1 1 2 4 4 4 4 3 3 3 4 3 2 2 1 1 -2 -4 -5 -5 -5 -6 -6 -6 -7 -7 -7 -7 -7 -7 -7 -8 -9 -9 -10 -9 -9 -9 -9 -10 -11 -12 -12 -13
-1 -1 -0 1 1 1 0 0 0 -0 -1 -1 -1 -1 -2 -4 -5 -6 -6 -5 -6 -6 -8 -8 -8 -8 -8 -8 -8 -8 -9 -10 -10 -10 -11 -10 -10 -11 -11 -12 -13 -14 -14 -15
-5 -4 -3 -3 -3 -3 -4 -4 -4 -4 -4 -3 -4 -5 -6 -6 -6 -6 -6 -7 -8 -8 -9 -9 -9 -8 -9 -9 -10 -10 -11 -12 -12 -12 -12 -12 -12 -13 -14 -15 -15 -15 -16 -16
-6 -6 -6 -6 -6 -6 -6 -6 -5 -6 -6 -5 -5 -6 -7 -8 -8 -7 -7 -8 -10 -10 -9 -9 -10 -10 -10 -11 -11 -12 -12 -13 -13 -13 -14 -14 -15 -16 -16 -16 -17 -17 -17 -18
-7 -7 -7 -7 -7 -8 -7 -7 -7 -7 -7 -8 -8 -8 -8 -8 -8 -8 -9 -9 -10 -10 -11 -11 -11 -12 -12 -13 -13 -14 -14 -15 -15 -15 -16 -17 -17 -17 -17 -18 -18 -18 -19 -19
-8 -8 -8 -8 -8 -8 -8 -8 -8 -8 -8 -8 -8 -8 -9 -9 -10 -9 -11 -12 -12 -12 -12 -13 -13 -13 -14 -14 -15 -15 -16 -16 -17 -17 -18 -18 -18 -18 -19 -19 -19 -20 -20 -21
-8 -8 -9 -9 -8 -8 -9 -10 -9 -10 -10 -10 -10 -10 -10 -10 -11 -12 -12 -13 -13 -13 -14 -14 -15 -15 -15 -16 -16 -17 -18 -18 -18 -19 -19 -19 -19 -19 -20 -20 -21 -21 -21 -22
-9 -9 -9 -10 -10 -10 -10 -11 -11 -11 -11 -11 -11 -12 -12 -12 -12 -13 -13 -14 -14 -15 -15 -16 -16 -17 -17 -18 -18 -19 -19 -19 -20 -20 -20 -21 -21 -21 -21 -22 -22 -22 -22 -23
-10 -11 -11 -10 -10 -11 -11 -11 -12 -12 -12 -13 -13 -13 -14 -14 -14 -15 -15 -16 -16 -17 -17 -18 -18 -19 -19 -19 -20 -20 -21 -21 -21 -21 -21 -22 -22 -22 -23 -23 -23 -23 -23 -24
-12 -12 -12 -12 -12 -12 -12 -12 -13 -13 -14 -14 -14 -15 -15 -16 -16 -16 -17 -17 -17 -18 -18 -19 -19 -20 -20 -20 -21 -21 -21 -22 -22 -22 -23 -23 -23 -24 -24 -24 -24 -24 -24 -23
Height
1403 1407 1408 1412 1414 1413 1416 1420 1434 1431 1431 1423 1417 1416 1413 1413 1415 1417 1418 1419 1421 1424 1427 1430 1433 1434 1435 1442 1444 1448 1451 1455 1458 1459 1463 1466 1469 1473 1476 1479 1481 1484 1485 1486
1406 1405 1407 1411 1405 1407 1407 1408 1411 1415 1419 1408 1405 1407 1406 1407 1411 1412 1412 1413 1416 1418 1421 1425 1429 1431 1433 1435 1437 1441 1446 1449 1451 1454 1458 1459 1463 1468 1472 1474 1477 1479 1480 1481
1409 1406 1410 1420 1401 1404 1407 1401 1401 1414 1409 1401 1401 1400 1401 1400 1403 1405 1408 1411 1413 1415 1418 1421 1425 1426 1429 1432 1434 1437 1440 1442 1446 1450 1454 1458 1461 1464 1467 1470 1473 1474 1476 1478
1422 1416 1424 1395 1385 1392 1398 1393 1391 1394 1394 1395 1392 1391 1393 1392 1394 1398 1403 1405 1408 1410 1413 1417 1421 1425 1427 1430 1432 1436 1438 1441 1445 1448 1451 1455 1457 1461 1464 1467 1470 1471 1473 1475
1411 1409 1395 1387 1385 1389 1393 1396 1384 1388 1388 1388 1387 1390 1390 1391 1392 1395 1399 1402 1404 1406 1408 1412 1416 1418 1421 1425 1430 1433 1437 1440 1443 1445 1447 1450 1455 1458 1461 1464 1466 1469 1471 1473
1416 1411 1406 1387 1383 1381 1382 1397 1380 1382 1384 1383 1383 1397 1392 1388 1391 1395 1398 1400 1402 1405 1408 1410 1412 1413 1416 1421 1426 1431 1435 1438 1442 1444 1447 1450 1454 1456 1460 1463 1465 1468 1469 1471
1418 1417 1402 1379 1376 1377 1398 1399 1377 1379 1379 1377 1381 1382 1381 1385 1389 1393 1395 1398 1401 1403 1405 1408 1411 1413 1416 1420 1423 1426 1430 1433 1436 1441 1445 1449 1452 1455 1459 1461 1463 1466 1467 1470
1418 1418 1411 1380 1378 1385 1385 1377 1377 1378 1376 1374 1376 1378 1381 1382 1386 1388 1391 1396 1399 1402 1405 1409 1411 1412 1415 1419 1423 1425 1427 1432 1436 1440 1444 1447 1450 1453 1456 1459 1462 1465 1465 1467
1402 1402 1383 1384 1385 1384 1384 1383 1381 1377 1374 1371 1376 1374 1377 1379 1383 1384 1387 1393 1397 1400 1405 1409 1412 1414 1415 1418 1420 1424 1429 1433 1437 1440 1443 1446 1448 1450 1453 1456 1459 1461 1462 1464
1386 1383 1384 1380 1379 1378 1382 1385 1379 1381 1374 1369 1372 1379 1382 1377 1381 1383 1387 1391 1396 1400 1404 1408 1411 1414 1416 1418 1421 1425 1430 1433 1436 1438 1440 1443 1446 1449 1451 1453 1455 1458 1460 1461
1377 1374 1380 1382 1376 1375 1377 1377 1373 1370 1377 1371 1370 1373 1381 1378 1381 1383 1385 1390 1394 1398 1403 1408 1411 1414 1417 1420 1423 1425 1428 1431 1434 1435 1437 1440 1444 1447 1449 1451 1453 1454 1456 1457
1378 1370 1371 1376 1372 1373 1375 1376 1375 1373 1373 1373 1370 1370 1372 1376 1379 1382 1386 1392 1395 1400 1403 1408 1412 1415 1418 1421 1423 1425 1427 1431 1434 1437 1439 1442 1444 1445 1447 1449 1449 1450 1451 1452
1365 1365 1365 1365 1366 1369 1372 1373 1374 1376 1371 1366 1365 1366 1366 1369 1373 1382 1389 1394 1397 1399 1402 1405 1408 1413 1416 1419 1422 1426 1430 1434 1435 1438 1440 1442 1444 1445 1446 1447 1447 1447 1448 1448
1362 1361 1360 1361 1363 1367 1369 1369 1368 1367 1365 1363 1364 1365 1364 1367 1370 1375 1386 1392 1394 1396 1402 1405 1409 1413 1417 1420 1422 1425 1428 1432 1435 1437 1438 1441 1442 1444 1445 1447 1446 1446 1444 1443
1366 1366 1365 1363 1364 1365 1366 1364 1364 1365 1364 1362 1361 1363 1365 1368 1372 1375 1378 1388 1390 1393 1397 1403 1406 1411 1416 1419 1421 1425 1429 1433 1436 1438 1439 1442 1442 1442 1444 1444 1445 1444 1442 1440
1370 1365 1364 1363 1365 1364 1364 1365 1364 1364 1363 1362 1361 1362 1363 1365 1366 1370 1377 1384 1387 1390 1398 1403 1406 1413 1418 1421 1424 1426 1430 1434 1437 1438 1438 1438 1440 1440 1440 1440 1439 1439 1439 1437
1371 1366 1365 1366 1365 1364 1365 1366 1366 1366 1367 1367 1366 1366 1366 1369 1370 1374 1379 1387 1392 1396 1401 1406 1411 1417 1420 1423 1425 1429 1430 1432 1433 1435 1436 1437 1438 1438 1437 1437 1436 1435 1434 1433
1378 1375 1372 1370 1368 1368 1368 1367 1367 1368 1369 1370 1372 1372 1372 1374 1376 1381 1386 1392 1397 1403 1409 1413 1416 1420 1424 1424 1426 1428 1430 1431 1433 1434 1435 1436 1435 1435 1434 1433 1432 1431 1430 1429
1376 1374 1373 1372 1371 1370 1369 1370 1371 1372 1374 1377 1377 1378 1381 1384 1387 1390 1395 1399 1403 1408 1414 1419 1422 1424 1424 1425 1426 1427 1429 1430 1432 1433 1433 1433 1433 1431 1430 1430 1429 1427 1427 1425
1381 1378 1376 1375 1375 1374 1374 1376 1377 1378 1380 1382 1383 1386 1389 1393 1398 1399 1402 1404 1410 1414 1420 1424 1425 1425 1426 1426 1427 1427 1428 1429 1430 1430 1431 1430 1429 1428 1427 1426 1424 1423 1421 1419
1388 1384 1383 1382 1382 1383 1383 1384 1385 1386 1389 1391 1391 1395 1397 1402 1405 1407 1408 1410 1416 1420 1423 1425 1425 1426 1426 1427 1428 1428 1428 1428 1429 1428 1427 1427 1426 1424 1423 1422 1420 1418 1416 1415
1394 1392 1391 1391 1389 1390 1392 1392 1394 1396 1398 1400 1402 1404 1406 1409 1412 1413 1415 1418 1421 1424 1425 1426 1427 1427 1428 1428 1428 1428 1427 1427 1426 1426 1425 1424 1423 1421 1420 1418 1415 1414 1412 1411
1402 1400 1399 1399 1400 1401 1403 1404 1405 1406 1407 1409 1411 1412 1414 1416 1418 1419 1420 1424 1425 1427 1427 1428 1428 1428 1428 1428 1427 1426 1426 1425 1424 1424 1422 1421 1419 1417 1415 1413 1412 1410 1408 1406
1411 1410 1410 1411 1412 1412 1412 1415 1415 1415 1416 1417 1418 1420 1421 1421 1422 1424 1426 1427 1428 1429 1429 1429 1429 1428 1428 1427 1425 1425 1424 1423 1422 1421 1419 1417 1415 1413 1411 1410 1408 1406 1404 1401
1417 1417 1418 1419 1420 1422 1422 1422 1422 1423 1424 1424 1425 1425 1426 1426 1426 1428 1428 1429 1429 1429 1429 1429 1428 1427 1426 1426 1425 1424 1422 1421 1419 1417 1415 1413 1411 1410 1408 1406 1404 1401 1399 1396
1426 1426 1427 1427 1427 1428 1428 1427 1427 1429 1429 1429 1429 1430 1430 1430 1430 1430 1430 1431 1431 1430 1429 1429 1427 1426 1425 1424 1422 1420 1419 1418 1416 1414 1412 1410 1408 1406 1403 1400 1398 1396 1393 1390
1432 1432 1432 1432 1433 1433 1433 1433 1432 1433 1433 1432 1432 1433 1433 1433 1433 1432 1431 1430 1431 1430 1429 1428 1427 1425 1423 1422 1420 1418 1416 1415 1413 1410 1408 1406 1403 1401 1398 1395 1392 1390 1387 1383
Wind_Speed
11 11 14 16 12 16 14 14 10 6 7 10 9 9 11 9 5 5 24 26 23 20 16 13 11 13 17 28 29 27 26 23 23 27 27 23 21 22 22 21 19 19 18 18
16 18 15 10 15 15 17 16 12 11 13 18 19 15 17 15 15 17 19 25 28 27 26 22 20 20 20 21 21 20 22 23 25 28 27 21 20 20 19 18 18 18 17 14
17 19 18 16 16 21 15 12 11 13 9 8 12 9 16 13 21 25 25 19 16 29 30 29 26 24 26 21 20 21 22 23 24 25 23 20 19 20 18 18 18 16 14 13
4 4 14 7 11 10 16 14 6 4 4 6 7 15 14 24 33 26 27 20 21 22 32 33 31 27 25 24 24 20 21 23 23 22 21 21 20 19 19 17 15 14 12 9
7 9 5 12 8 4 7 8 7 6 6 8 18 4 6 11 11 15 22 22 22 22 32 35 33 32 32 28 25 22 20 21 21 20 21 20 19 19 16 15 13 11 9 10
3 3 17 2 8 11 3 9 4 3 8 5 9 4 4 13 10 14 18 22 24 23 27 28 30 32 31 28 25 23 23 23 22 23 22 21 18 16 16 12 10 11 13 12
3 1 6 5 8 8 7 4 6 14 7 4 5 7 14 15 13 15 18 21 24 24 24 24 28 28 28 27 27 27 27 26 26 23 21 19 17 16 13 17 17 17 16 13
0 3 5 8 8 6 4 20 19 21 18 6 15 16 20 19 20 20 21 23 23 24 24 24 26 27 27 26 27 28 29 27 25 23 22 18 16 18 19 20 18 19 17 14
7 5 5 19 8 9 15 22 14 10 3 12 11 19 21 22 24 23 25 26 25 25 26 26 26 26 28 31 31 30 28 27 25 22 20 19 20 22 22 20 18 16 14 13
4 6 9 26 18 15 20 22 25 21 5 5 9 1 17 22 27 29 28 27 27 27 28 27 26 28 30 32 31 29 28 25 23 22 22 23 23 23 21 19 18 16 16 15
2 3 14 25 16 15 24 29 32 22 21 2 9 19 32 27 28 28 27 28 27 28 28 26 26 27 29 30 29 27 25 25 26 28 29 28 26 22 20 17 15 14 13 13
5 14 13 15 3 1 10 10 21 34 28 21 10 24 23 23 23 26 27 27 26 27 27 25 25 26 26 23 22 25 27 27 27 26 24 22 20 19 15 13 13 12 13 13
4 6 5 7 2 2 3 4 8 15 17 16 9 18 21 22 25 24 24 25 27 29 29 29 29 27 24 24 25 26 27 26 24 22 19 16 14 11 10 8 8 6 8 9
15 10 7 7 4 6 6 8 10 12 10 9 10 18 22 26 27 27 26 29 31 32 30 29 28 25 21 21 24 25 24 21 22 19 16 12 9 7 4 7 8 8 10 12
20 14 10 5 6 5 8 10 8 8 5 4 5 19 25 29 28 30 32 32 35 34 31 29 27 23 19 22 23 20 17 17 15 12 9 5 5 7 9 9 11 11 11 11
16 11 11 11 10 8 9 7 4 6 7 15 20 27 31 34 37 38 35 35 37 33 28 27 25 20 16 15 14 14 13 9 6 11 11 6 7 9 12 12 11 11 12 14
18 18 18 15 10 7 7 7 5 6 9 13 20 27 32 35 37 36 33 30 30 29 23 17 15 13 13 15 15 12 13 13 11 7 5 6 8 10 12 13 12 13 14 16
5 5 8 7 7 7 9 8 9 10 11 16 20 25 29 31 35 34 33 28 23 20 12 9 11 14 14 13 10 7 5 3 2 3 6 9 10 11 13 13 14 15 15 16
6 6 6 8 8 9 11 10 11 12 14 17 21 24 26 28 28 28 24 19 15 15 16 13 12 10 9 8 6 3 1 1 4 6 9 10 11 12 13 14 15 15 17 18
18 17 17 19 17 17 19 17 17 18 18 19 25 28 29 26 22 21 18 21 18 16 13 10 7 6 5 4 3 1 2 3 6 9 11 11 12 13 13 15 15 16 17 17
24 25 26 26 27 25 24 23 24 26 24 22 24 25 26 24 21 19 18 20 17 12 10 8 7 5 3 4 5 5 6 7 9 10 11 12 12 13 14 14 16 17 18 19
27 29 30 30 31 30 28 27 27 28 28 28 28 26 24 22 19 18 16 16 13 9 8 6 5 5 5 4 5 6 8 9 10 10 10 11 13 15 16 17 18 19 20 21
31 31 32 32 32 32 30 30 29 28 27 24 22 21 21 19 16 14 16 12 8 7 6 6 6 5 5 5 7 8 9 10 10 10 12 13 14 15 16 16 15 17 21 22
30 30 30 29 29 29 30 27 26 25 24 21 20 17 14 14 16 13 11 8 5 2 5 7 7 7 6 7 8 9 10 11 11 12 14 16 17 17 17 19 20 21 21 22
29 29 28 28 28 26 24 21 21 20 19 20 19 15 13 12 10 9 6 6 5 3 7 9 11 11 10 10 11 12 13 12 13 14 15 16 17 19 22 21 19 19 21 24
25 26 24 23 23 22 22 19 21 17 15 17 16 14 12 11 10 8 7 7 7 6 7 10 12 11 13 13 15 13 13 14 14 16 18 19 21 22 21 20 21 23 24 26
22 21 21 21 19 17 15 15 16 17 13 11 12 11 10 9 8 5 5 6 5 5 8 9 9 11 14 14 13 14 15 16 16 17 18 20 21 23 23 22 22 23 24 24
Wind_Direction
198 215 224 217 231 226 222 225 221 219 237 254 245 243 204 177 229 280 199 187 190 193 195 207 199 199 197 207 212 214 217 222 203 204 213 210 216 226 226 228 229 231 228 225
228 237 259 245 238 266 239 217 233 218 239 243 242 210 190 209 250 240 192 197 198 194 191 192 196 206 213 205 211 215 209 210 202 203 207 211 218 218 224 226 226 224 219 212
228 222 247 266 214 228 260 260 214 229 220 224 231 213 193 205 236 225 213 187 190 195 189 185 195 207 211 208 208 197 190 191 192 197 201 207 210 216 208 202 198 192 190 186
186 139 220 248 179 195 229 242 233 251 243 254 231 243 230 225 220 225 205 190 197 189 189 190 193 196 205 214 216 202 199 200 198 198 204 195 189 183 180 179 178 178 179 184
189 209 277 251 233 219 211 263 225 234 259 260 280 239 130 138 141 161 179 183 188 187 186 182 186 195 201 197 204 213 201 194 190 187 184 182 176 175 176 174 173 166 168 166
39 177 228 128 243 260 347 259 255 249 246 265 272 151 229 160 169 172 191 195 193 193 188 192 185 188 192 193 197 194 193 188 184 184 184 181 186 181 165 167 173 158 161 171
77 292 296 233 207 248 230 236 262 268 262 311 186 189 171 165 180 198 201 199 190 190 192 188 186 195 198 197 196 190 183 182 184 185 186 185 178 169 168 168 166 169 183 190
162 261 257 355 345 205 228 289 272 266 265 194 153 151 164 173 181 187 189 191 199 195 189 186 188 190 186 185 181 182 184 184 184 184 181 179 171 166 173 176 180 187 203 201
174 221 241 314 300 336 3 353 325 332 298 53 182 170 177 179 185 191 195 186 185 184 177 178 185 194 183 181 186 187 188 185 184 187 178 174 170 169 181 193 199 195 202 210
119 249 247 287 282 318 327 317 333 341 353 241 161 194 198 189 187 183 184 182 183 183 180 176 185 189 192 187 191 190 187 186 179 170 164 173 178 183 189 193 195 199 210 218
250 336 336 281 258 274 265 284 314 315 319 267 190 203 216 191 189 190 190 184 186 185 179 178 186 189 194 194 192 192 186 177 170 174 177 177 181 186 197 204 213 217 221 231
215 211 182 235 128 176 219 217 300 310 303 271 208 202 203 198 197 190 185 183 183 179 178 178 181 182 187 192 198 187 178 174 176 181 184 189 195 192 192 201 210 223 235 243
234 287 259 267 191 278 232 249 269 289 297 277 272 213 202 193 185 181 181 186 178 173 173 172 171 167 169 177 184 184 177 170 176 180 186 189 189 194 202 202 217 244 255 259
29 4 88 80 63 6 329 320 319 303 292 260 252 206 195 179 167 170 180 176 171 171 168 169 169 166 169 177 180 174 175 181 183 177 171 182 187 191 237 276 274 281 290 297
12 18 34 10 341 3 327 335 343 358 335 278 214 178 167 155 155 156 163 172 171 167 163 166 164 150 155 167 173 172 174 174 178 178 173 182 233 254 245 257 260 265 273 277
359 37 42 46 29 358 352 18 46 74 99 126 147 151 154 158 155 155 156 160 170 155 152 155 147 138 146 150 155 155 150 139 177 211 223 228 243 261 263 260 258 259 259 264
9 14 11 23 27 95 74 72 80 83 112 130 136 140 149 149 145 144 145 150 149 140 141 156 158 169 166 162 166 178 208 208 215 221 237 262 267 266 267 264 266 266 268 269
23 25 32 36 94 95 86 89 102 114 122 133 142 143 141 144 136 132 134 139 138 131 134 149 156 163 169 169 169 164 168 183 216 271 272 274 272 268 271 273 271 272 273 279
40 56 69 88 94 101 102 103 108 116 124 131 135 129 129 128 128 126 127 128 131 136 129 144 154 152 149 151 157 149 102 307 286 285 284 283 283 277 280 285 286 281 281 285
78 82 85 87 88 89 94 97 106 109 111 122 120 119 116 116 121 123 126 117 116 119 125 132 136 134 118 100 89 65 334 302 285 284 285 285 289 289 288 288 286 288 293 295
86 88 89 91 91 92 94 99 101 102 108 112 112 111 109 109 109 112 114 112 108 114 117 113 104 93 68 33 6 334 313 297 291 291 290 293 294 295 296 294 292 293 293 294
90 91 92 93 91 91 92 95 98 103 103 102 102 104 104 101 103 101 95 104 110 103 89 78 65 43 26 348 329 322 321 320 317 316 310 303 300 297 297 300 301 297 296 297
90 92 93 92 94 97 98 96 97 98 96 95 96 97 96 94 90 98 98 95 93 78 52 37 28 15 9 340 333 331 325 320 318 311 304 304 304 303 305 309 306 302 304 304
89 90 92 95 97 95 92 93 95 95 95 93 92 89 89 94 94 91 96 100 94 46 22 22 16 6 350 336 334 331 328 327 325 317 309 303 301 299 294 293 297 302 302 301
95 94 91 88 85 84 85 84 86 86 89 89 92 92 81 82 84 92 88 85 84 15 1 0 2 5 4 354 340 329 322 323 322 320 319 313 308 307 308 305 297 294 295 298
88 85 87 90 94 97 96 97 92 81 80 80 75 72 72 68 63 63 68 52 24 18 6 358 358 350 346 346 345 346 343 331 318 313 311 309 310 312 312 303 295 294 297 298
90 88 81 76 73 76 84 95 92 88 85 84 90 86 87 85 90 79 39 18 6 353 342 336 327 323 324 326 325 319 317 321 322 315 313 315 315 314 312 308 310 308 306 307